Terminal Aerodrome Forecast
Issued by NWS

Home | Current Version | Previous Version | Text Only | Print | Product List | Glossary On
Versions: 1 2 3 4 5 6 7 8 9 10 11 12 13 14 15 16 17 18 19 20 21 22 23 24 25 26 27 28 29 30 31 32 33 34 35 36 37 38 39 40 41 42 43 44 45 46 47 48 49 50
000
FTAK31 PANC 131740
TAFACV
TAF
PACV 131740Z 1318/1418 05003KT P6SM OVC035
     FM132300 24005KT P6SM VCSH BKN035 OVC050
     FM140500 VRB05KT P6SM SCT030 BKN060
     FM140900 00000KT P6SM VCFG SCT050=

USA.gov is the U.S. government's official web portal to all federal, state and local government web resources and services.